Deer Park, WA
on Wednesday, January 2, 2013

Wednesday
Previous Day Next Day
Daily Summary
 ActualAverageRecord
Temperature
Mean Temperature °F 25°F  
Max Temperature 28°F 32°F 44°F (2007)
Min Temperature 5°F 19°F -8°F (2009)
Degree Days
Heating Degree Days 48 40  
Month to date heating degree days 100 80  
Since 1 July heating degree days 2893 3307  
Cooling Degree Days 0 0  
Month to date cooling degree days 0 0  
Year to date cooling degree days 0 0  
Moisture
Dew Point 17°F   
Average Humidity 85    
Maximum Humidity 100    
Minimum Humidity 69    
Precipitation
Precipitation 0.00 in 0.11 in 0.63 in (2003)
Month to date precipitation 0.00 0.22  
Year to date precipitation 0.00 0.22  
Wind
Wind Speed 2 mph   
Max Wind Speed 8 mph   
Max Gust Speed 10 mph   
Visibility 9 miles   
Events     

Key: T is trace of precipitation, MM is missing value
Source: NWS Daily Summary
Time(PST)TemperatureDew PointHumidity Pressure Visibility Wind DirectionWind SpeedGust SpeedPrecipitationEvents Conditions
12:53 AM 19.9°F 18.0°F 92% 30.65 in 6.0 miles Calm Calm - N/A   Overcast
1:53 AM 19.9°F 19.0°F 96% 30.66 in 6.0 miles Calm Calm - N/A   Overcast
2:53 AM 19.9°F 18.0°F 92% 30.66 in 6.0 miles Calm Calm - N/A   Overcast
3:53 AM 19.9°F 19.0°F 96% 30.65 in 6.0 miles Calm Calm - N/A   Overcast
4:53 AM 19.9°F 19.0°F 96% 30.63 in 7.0 miles Calm Calm - N/A   Overcast
5:53 AM 19.9°F 18.0°F 92% 30.63 in 7.0 miles Calm Calm - N/A   Overcast
7:53 AM 21.0°F 19.0°F 92% 30.63 in 8.0 miles Calm Calm - N/A   Overcast
8:53 AM 21.0°F 19.0°F 92% 30.63 in 7.0 miles Calm Calm - N/A   Overcast
9:53 AM 21.9°F 19.9°F 92% 30.64 in 9.0 miles Calm Calm - N/A   Overcast
10:53 AM 24.1°F 21.0°F 88% 30.63 in 10.0 miles Calm Calm - N/A   Overcast
11:53 AM 27.0°F 21.0°F 78% 30.61 in 10.0 miles North 3.5 mph - N/A   Overcast
12:53 PM 28.0°F 19.9°F 72% 30.59 in 10.0 miles Calm Calm - N/A   Overcast
1:53 PM 28.0°F 19.9°F 72% 30.59 in 10.0 miles Calm Calm - N/A   Overcast
2:53 PM 27.0°F 19.0°F 72% 30.59 in 10.0 miles NE 5.8 mph - N/A   Overcast
3:53 PM 27.0°F 19.9°F 75% 30.59 in 10.0 miles North 3.5 mph - N/A   Overcast
4:53 PM 26.1°F 19.9°F 78% 30.58 in 10.0 miles North 3.5 mph - N/A   Overcast
5:46 PM 21.2°F 15.8°F 80% 30.48 in 10.0 miles North 5.8 mph - N/A   Scattered Clouds
5:53 PM 21.0°F 17.1°F 85% 30.58 in 10.0 miles North 4.6 mph - N/A   Partly Cloudy
6:53 PM 16.0°F 15.1°F 96% 30.58 in 10.0 miles North 5.8 mph - N/A   Clear
7:53 PM 12.0°F 10.9°F 95% 30.58 in 10.0 miles NNW 4.6 mph - N/A   Clear
8:53 PM 12.0°F 10.0°F 92% 30.57 in 10.0 miles NE 4.6 mph - N/A   Clear
9:53 PM 12.9°F 10.9°F 92% 30.56 in 10.0 miles Calm Calm - N/A   Clear
10:53 PM 7.0°F 5.0°F 92% 30.56 in 10.0 miles NNW 4.6 mph - N/A   Clear
11:53 PM 6.1°F 3.9°F 91% 30.54 in 10.0 miles NW 4.6 mph - N/A   Clear
Moon Phase
Jan. 02 Jan. 04 Jan. 11 Jan. 18 Jan. 26
Sunrise:07:39 AM (PST) Moon Rise:10:13 PM (PST)1/2
Sunset:04:08 PM (PST) Moon Set:09:58 AM (PST)1/2

Copyright © 2014 The Weather Underground, Inc.